Location: Winthrop
(48.4780°N, 120.1850°W)
Time: 04:35:20
(UTC-08:00)

Vanguard 1 Rocket - Pass Details

Date: 28 November 2023
Orbit: 654 x 4218 km, 34.3° (Epoch: 24 February)

Event Time Altitude Azimuth Distance (km) Brightness Sun altitude
Rises 07:07:17 0° 234° (SW) 7,182 11.7 -3.7°
Reaches altitude 10° 07:13:31 10° 226° (SW) 5,550 11.2 -2.8°
Maximum altitude 07:25:24 31° 173° (S) 2,830 10.4 -1.1°
Drops below altitude 10° 07:32:28 10° 115° (ESE) 3,239 12.3 -0.1°
Sets 07:35:02 0° 103° (ESE) 3,885 12.3 0.2°
